sat.trackr.live / text

‹ back to catalog

STARLINK-32136

NORAD 61515 · 2024-183G

PAYLOAD ACTIVE UNKNOWN

§ Identity

Operator
Country
US
Launch date
2024-10-15
Launch site
AFETR
Launch vehicle
Mass (kg)
RCS (m²)

Purposes: comms

External: N2YO · Heavens-Above · Gunter

§ Orbital elements

Epoch: 2026-05-24T23:29:19.541760Z

Period
94.01 min
Inclination
53.1603°
Eccentricity
0.0001116
Mean motion
15.31699180 rev/d
Perigee alt
470.0 km
Apogee alt
471.5 km
Semi-major
6,848.9 km
B*
1.0815e-5
RAAN
148.0295°
Arg perigee
92.3007°
Mean anomaly
267.8122°
Rev number
9,133

§ Raw data

STARLINK-321361 61515U 24183G   26144.97869840 -.00000029  00000+0  10815-4 0  99942 61515  53.1603 148.0295 0001116  92.3007 267.8122 15.31699180 91334

JSON: /api/v1/satellites/61515 · /tle

For live sub-satellite position, see the globe view (requires WebGL).

§ Visibility from observer

Set your observer location to see the next 7 days of passes ≥ 10°. The values pass through the URL so the page stays shareable.

No JS? Fill the form by hand. The geolocation button needs JavaScript.